Location: Bittelbronn
(48.4454°N, 8.5870°E)
Time: 07:22:36
(UTC+00:00)

deb Kosmos-1275 - Visible Passes

Search period start: 07 October 2024 00:00
Search period end: 17 October 2024 00:00
Orbit: 886 x 986 km, 82.7° (Epoch: 06 October)

Date Brightness Start Highest point End Pass type
(mag) Time Alt. Az. Time Alt. Az. Time Alt. Az.
07 Oct ? 21:16:19 13° NNE 21:16:19 13° NNE 21:16:51 10° NNE visible
07 Oct ? 23:00:08 14° NNW 23:00:08 14° NNW 23:01:05 10° N visible
08 Oct ? 21:29:46 14° NNE 21:29:46 14° NNE 21:30:29 10° NNE visible
08 Oct ? 23:13:36 12° NNW 23:13:36 12° NNW 23:14:12 10° NNW visible
09 Oct ? 21:43:13 14° N 21:43:13 14° N 21:44:01 10° N visible
09 Oct ? 23:27:01 10° NNW 23:27:01 10° NNW 23:27:03 10° NNW visible
10 Oct ? 21:56:38 14° N 21:56:38 14° N 21:57:26 10° N visible
11 Oct ? 22:10:02 14° N 22:10:02 14° N 22:10:47 10° N visible
12 Oct ? 20:39:36 11° NNE 20:39:36 11° NNE 20:39:44 10° NNE visible
12 Oct ? 22:23:25 12° N 22:23:25 12° N 22:24:00 10° N visible
13 Oct ? 20:52:58 12° NNE 20:52:58 12° NNE 20:53:19 10° NNE visible
13 Oct ? 22:36:47 11° NNW 22:36:47 11° NNW 22:37:04 10° NNW visible
14 Oct ? 21:06:19 12° N 21:06:19 12° N 21:06:48 10° N visible
15 Oct ? 21:19:39 13° N 21:19:39 13° N 21:20:11 10° N visible
16 Oct ? 21:32:58 12° N 21:32:58 12° N 21:33:28 10° N visible
